Date String (YYYY-MM-DD hh:mm:ss) UTC,Instrument flags,absolute air pressure of the measurement (hPa),sample flow rate (lpm),inlet stack bypass flow (lpm),air temperature of the measurement (°C),ambient temperature measured by the external sensor (°C),aerosol sample conditioner tube jacket temperature (°C),OPC LED temperature (°C),internal box temperature (°C),relative humidity of the measurement (%),span deviation,mass concentration of particles derived from Lorenz-Mie calculation of OPC scattering (μg/m³),mass concentration of particles derived from Lorenz-Mie calculation of OPC scattering (μg/m³),mass concentration of particles derived from Lorenz-Mie calculation of OPC scattering (μg/m³)
DateTimeUTC,F1_M11,P_M11,Q1_M11,Q2_M11,T1_M11,T2_M11,T3_M11,T4_M11,T5_M11,U1_M11,ZSPAN_M11,X2_M11,X0_M11,X1_M11
2023-07-10 23:00:00,SystemResetWarning,0829.8,4.99,000.00,028.7,027.3,000.0,036.9,030.5,25.4,0000.0,0004.57,0011.40,0003.87
2023-07-10 23:01:00,SystemResetWarning,0829.8,4.99,000.00,028.7,026.9,000.0,036.9,030.4,23.0,0000.0,0004.62,0010.98,0003.88
2023-07-10 23:02:00,SystemResetWarning,0829.8,5.00,000.00,028.7,025.4,000.0,036.8,030.2,22.2,0000.0,0004.62,0010.75,0003.89
2023-07-10 23:03:00,SystemResetWarning,0829.8,5.01,000.00,028.6,024.9,000.0,036.7,030.1,23.2,0000.0,0004.65,0011.02,0003.90
2023-07-10 23:04:00,SystemResetWarning,0829.8,5.01,000.00,028.6,025.2,000.0,036.8,030.0,22.2,0000.0,0004.62,0010.46,0003.91
2023-07-10 23:05:00,SystemResetWarning,0829.8,4.99,000.00,028.5,025.6,000.0,036.8,030.0,21.6,0000.0,0004.63,0010.80,0003.92
2023-07-10 23:06:00,SystemResetWarning,0829.8,5.00,000.00,028.6,026.1,000.0,036.8,030.1,22.8,0000.0,0004.66,0011.40,0003.92
2023-07-10 23:07:00,SystemResetWarning,0829.7,5.01,000.00,028.6,026.5,000.0,036.9,030.2,22.9,0000.0,0004.66,0012.05,0003.92
2023-07-10 23:08:00,SystemResetWarning,0829.8,4.99,000.00,028.6,026.9,000.0,036.9,030.3,26.4,0000.0,0004.63,0012.17,0003.91
2023-07-10 23:09:00,SystemResetWarning,0829.8,4.98,000.00,028.7,027.3,000.0,036.9,030.5,24.3,0000.0,0004.61,0012.41,0003.90
2023-07-10 23:10:00,SystemResetWarning,0829.8,5.00,000.00,028.7,026.9,000.0,036.9,030.4,23.0,0000.0,0004.57,0012.43,0003.88
2023-07-10 23:11:00,SystemResetWarning,0829.8,4.99,000.00,028.7,025.4,000.0,036.8,030.2,25.5,0000.0,0004.54,0012.66,0003.87
2023-07-10 23:12:00,SystemResetWarning,0829.7,5.01,000.00,028.6,024.8,000.0,036.7,030.0,28.6,0000.0,0004.48,0012.74,0003.84
2023-07-10 23:13:00,SystemResetWarning,0829.7,5.01,000.00,028.5,025.1,000.0,036.8,029.9,25.4,0000.0,0004.46,0012.73,0003.81
2023-07-10 23:14:00,SystemResetWarning,0829.7,5.00,000.00,028.5,025.5,000.0,036.8,030.0,24.9,0000.0,0004.47,0012.85,0003.80
2023-07-10 23:15:00,SystemResetWarning,0829.7,5.00,000.00,028.5,026.0,000.0,036.8,030.1,26.6,0000.0,0004.46,0013.26,0003.79
2023-07-10 23:16:00,SystemResetWarning,0829.7,5.00,000.00,028.6,026.4,000.0,036.8,030.2,28.5,0000.0,0004.47,0013.47,0003.78
2023-07-10 23:17:00,SystemResetWarning,0829.7,5.00,000.00,028.6,026.8,000.0,036.9,030.3,28.3,0000.0,0004.47,0013.60,0003.77
2023-07-10 23:18:00,SystemResetWarning,0829.7,5.00,000.00,028.7,027.2,000.0,036.9,030.4,28.0,0000.0,0004.43,0013.97,0003.77
2023-07-10 23:19:00,SystemResetWarning,0829.7,4.99,000.00,028.7,027.0,000.0,036.9,030.4,29.5,0000.0,0004.48,0014.36,0003.77
2023-07-10 23:20:00,SystemResetWarning,0829.7,4.99,000.00,028.7,025.4,000.0,036.8,030.2,29.6,0000.0,0004.51,0014.31,0003.77
2023-07-10 23:21:00,SystemResetWarning,0829.7,5.02,000.00,028.6,024.8,000.0,036.7,030.0,28.1,0000.0,0004.54,0014.19,0003.77
2023-07-10 23:22:00,SystemResetWarning,0829.7,5.00,000.00,028.5,025.0,000.0,036.7,029.9,27.7,0000.0,0004.58,0014.42,0003.78
2023-07-10 23:23:00,SystemResetWarning,0829.7,5.00,000.00,028.5,025.4,000.0,036.8,029.9,23.6,0000.0,0004.60,0015.55,0003.79
2023-07-10 23:24:00,SystemResetWarning,0829.7,5.00,000.00,028.5,025.9,000.0,036.8,030.1,23.3,0000.0,0004.62,0016.58,0003.81
2023-07-10 23:25:00,SystemResetWarning,0829.7,5.00,000.00,028.5,026.3,000.0,036.8,030.2,23.0,0000.0,0004.64,0017.36,0003.82
2023-07-10 23:26:00,SystemResetWarning,0829.7,5.00,000.00,028.6,026.8,000.0,036.9,030.3,23.0,0000.0,0004.69,0016.61,0003.83
2023-07-10 23:27:00,SystemResetWarning,0829.7,5.01,000.00,028.6,027.1,000.0,036.9,030.4,26.8,0000.0,0004.69,0016.70,0003.83
2023-07-10 23:28:00,SystemResetWarning,0829.7,4.98,000.00,028.7,027.5,000.0,036.9,030.5,28.2,0000.0,0004.69,0015.62,0003.83
2023-07-10 23:29:00,SystemResetWarning,0829.7,4.99,000.00,028.8,027.3,000.0,036.9,030.5,26.8,0000.0,0004.69,0014.77,0003.83
2023-07-10 23:30:00,SystemResetWarning,0829.7,5.00,000.00,028.7,025.8,000.0,036.8,030.3,25.6,0000.0,0004.67,0014.06,0003.82
2023-07-10 23:31:00,SystemResetWarning,0829.7,5.00,000.00,028.6,024.9,000.0,036.8,030.1,23.8,0000.0,0004.63,0013.61,0003.81
2023-07-10 23:32:00,SystemResetWarning,0829.7,5.00,000.00,028.6,025.0,000.0,036.8,030.0,24.6,0000.0,0004.59,0013.54,0003.81
2023-07-10 23:33:00,SystemResetWarning,0829.6,5.02,000.00,028.5,025.4,000.0,036.8,029.9,22.7,0000.0,0004.54,0012.91,0003.80
2023-07-10 23:34:00,SystemResetWarning,0829.6,4.99,000.00,028.5,025.9,000.0,036.8,030.1,20.4,0000.0,0004.52,0012.38,0003.80
2023-07-10 23:35:00,SystemResetWarning,0829.7,5.00,000.00,028.6,026.3,000.0,036.9,030.2,22.8,0000.0,0004.53,0011.28,0003.79
2023-07-10 23:36:00,SystemResetWarning,0829.7,5.00,000.00,028.6,026.8,000.0,036.9,030.3,23.2,0000.0,0004.49,0009.91,0003.79
2023-07-10 23:37:00,SystemResetWarning,0829.7,5.00,000.00,028.7,027.2,000.0,036.9,030.4,22.6,0000.0,0004.41,0009.17,0003.78
2023-07-10 23:38:00,SystemResetWarning,0829.7,4.99,000.00,028.7,027.5,000.0,036.9,030.5,22.1,0000.0,0004.37,0008.80,0003.77
2023-07-10 23:39:00,SystemResetWarning,0829.7,5.00,000.00,028.8,026.8,000.0,036.9,030.4,22.4,0000.0,0004.33,0008.61,0003.76
2023-07-10 23:40:00,SystemResetWarning,0829.7,5.00,000.00,028.7,025.2,000.0,036.8,030.2,20.5,0000.0,0004.34,0008.72,0003.75
2023-07-10 23:41:00,SystemResetWarning,0829.7,5.01,000.00,028.6,024.8,000.0,036.8,030.0,20.0,0000.0,0004.34,0008.58,0003.74
2023-07-10 23:42:00,SystemResetWarning,0829.6,5.01,000.00,028.6,025.2,000.0,036.8,030.0,20.4,0000.0,0004.34,0008.47,0003.73
2023-07-10 23:43:00,SystemResetWarning,0829.7,5.00,000.00,028.5,025.6,000.0,036.8,030.0,21.5,0000.0,0004.36,0008.50,0003.72
2023-07-10 23:44:00,SystemResetWarning,0829.7,4.99,000.00,028.6,026.1,000.0,036.9,030.1,20.3,0000.0,0004.37,0008.76,0003.72
2023-07-10 23:45:00,SystemResetWarning,0829.7,5.00,000.00,028.6,026.5,000.0,036.9,030.3,21.4,0000.0,0004.35,0009.25,0003.71
2023-07-10 23:46:00,SystemResetWarning,0829.7,5.00,000.00,028.7,026.9,000.0,036.9,030.4,20.9,0000.0,0004.29,0008.83,0003.70
2023-07-10 23:47:00,SystemResetWarning,0829.7,5.01,000.00,028.7,027.3,000.0,036.9,030.5,21.6,0000.0,0004.26,0008.93,0003.68
2023-07-10 23:48:00,SystemResetWarning,0829.7,5.00,000.00,028.8,027.3,000.0,036.9,030.6,22.5,0000.0,0004.29,0009.65,0003.69
2023-07-10 23:49:00,SystemResetWarning,0829.7,4.99,000.00,028.8,026.0,000.0,036.9,030.3,21.3,0000.0,0004.34,0010.12,0003.69
2023-07-10 23:50:00,SystemResetWarning,0829.7,5.00,000.00,028.7,024.8,000.0,036.8,030.1,21.5,0000.0,0004.37,0010.32,0003.70
2023-07-10 23:51:00,SystemResetWarning,0829.7,5.02,000.00,028.6,024.9,000.0,036.8,030.0,20.9,0000.0,0004.38,0010.81,0003.71
2023-07-10 23:52:00,SystemResetWarning,0829.7,5.00,000.00,028.5,025.3,000.0,036.8,029.9,19.9,0000.0,0004.35,0010.70,0003.71
2023-07-10 23:53:00,SystemResetWarning,0829.6,5.00,000.00,028.5,025.7,000.0,036.9,030.0,19.9,0000.0,0004.34,0011.39,0003.72
2023-07-10 23:54:00,SystemResetWarning,0829.7,5.00,000.00,028.6,026.2,000.0,036.9,030.2,21.2,0000.0,0004.34,0011.42,0003.73
2023-07-10 23:55:00,SystemResetWarning,0829.7,5.00,000.00,028.6,026.7,000.0,036.9,030.3,24.4,0000.0,0004.36,0011.82,0003.73
2023-07-10 23:56:00,SystemResetWarning,0829.7,5.00,000.00,028.7,027.0,000.0,036.9,030.4,24.8,0000.0,0004.40,0011.99,0003.73
2023-07-10 23:57:00,SystemResetWarning,0829.7,5.00,000.00,028.7,027.4,000.0,037.0,030.5,24.4,0000.0,0004.46,0012.19,0003.74
2023-07-10 23:58:00,SystemResetWarning,0829.7,5.00,000.00,028.8,027.5,000.0,037.0,030.6,25.8,0000.0,0004.50,0012.84,0003.75
2023-07-10 23:59:00,SystemResetWarning,0829.7,4.98,000.00,028.8,026.3,000.0,036.9,030.4,26.5,0000.0,0004.46,0012.68,0003.74
